Location: D?uga
(50.2667°N, 19.7833°E)
Time: 15:51:28
(UTC+00:00)

Cosmos 2333 - Pass Details

Date: 23 May 2024
Orbit: 829 x 865 km, 70.9° (Epoch: 11 June)

Event Time Altitude Azimuth Distance (km) Brightness Sun altitude
Rises 01:43:01 0° 328° (NNW) 3,426 7.6 -8.1°
Reaches altitude 10° 01:45:30 10° 324° (NW) 2,492 6.8 -7.9°
Maximum altitude 01:51:05 55° 248° (WSW) 1,028 4.4 -7.3°
Drops below altitude 10° 01:56:39 10° 172° (S) 2,495 6.3 -6.6°
Sets 01:59:09 0° 168° (SSE) 3,431 7.1 -6.3°
